Social login voor leden:
METAR EBOS 141620Z 05003KT 8000 FEW009 BKN036 01/M04 Q1025 NOSIG
TAF EBOS 141100Z 1412/1518 09006KT 6000 SCT035 TEMPO 1412/1414 4000 BR BKN008 BECMG 1417/1419 4000 BR PROB40 1419/1504 2000 BECMG 1505/1507 6000 NSW BECMG 1508/1510 14012KT

Sonaca 200, onze nieuwe parel van Belgische makelij!

In maart 2019 nemen wij ons eerste gloednieuw toestel van het type Sonaca 200 in gebruik! Dit is een volgende stap in het strategisch plan om onze vloot te vernieuwen. Dit toestel is van Belgische makelij en oogt niet alleen zeer mooi, maar is ook zeer performant. Het toestel zal enerzijds gebruikt worden als lestoestel, maar wordt anderzijds ook ter beschikking gesteld van onze leden. Wil je ook vliegen op de Sonaca 200? Aarzel niet om ons te contacteren om lid te worden!

 

Opleiding Piloot
Meevliegen
Visit Us
Agenda
Opleiding Piloot
Doopvluchten
Visit Us
Volgende activiteit
Noordzee Vliegclub - Nieuwpoortsesteenweg 947 8400 Oostende - Tel 059 30 04 79 - Dit e-mailadres wordt beveiligd tegen spambots. JavaScript dient ingeschakeld te zijn om het te bekijken.

 - Copyright 2017 ©